User: anonymous   Login
Location: Unspecified
(0.0000°N, 0.0000°E)
Time: 14:06:34
(UTC+02:00)
Language:

Cosmos 1538 Rocket - Orbit

View from above orbital plane
View from above orbital plane
View from above satellite
View from above satellite

Ground track
Ground track

The orbit data is extracted from the following two-line orbital elements,

1 14760U 84019B   17232.84167875 -.00000021 +00000-0 +17120-5 0  9991
2 14760 074.0450 003.2426 0028305 209.0188 306.8993 14.35824777752643
Epoch (UTC): 20 August 2017 20:12:01
Eccentricity: 0.0028305
inclination: 74.0450°
perigee height: 752 km
apogee height: 792 km
right ascension of ascending node: 3.2426°
argument of perigee: 209.0188°
revolutions per day: 14.35824777
mean anomaly at epoch: 306.8993°
orbit number at epoch: 75264

The dashed part of the orbit path shows where the satellite is in the earth's shadow,  

DLR